Terminal Aerodrome Forecast
Issued by NWS Sterling, VA

Home | Current Version | Previous Version | Text Only | Print | Product List | Glossary On
Versions: 1 2 3 4 5 6 7 8 9 10 11 12 13 14 15 16 17 18 19 20 21 22 23 24 25 26 27 28
000
FTUS41 KLWX 040859 AAA
TAFBWI
TAF AMD
KBWI 040859Z 0409/0512 VRB03KT P6SM FEW050 BKN200
      TEMPO 0409/0410 VRB40KT 1SM TSRA OVC015CB
     FM041400 25010KT P6SM FEW050 SCT200
     FM042000 25010KT P6SM BKN050
     FM050000 31005KT P6SM FEW250=

USA.gov is the U.S. government's official web portal to all federal, state and local government web resources and services.